weather.gov     
National Weather Service

Miscellaneous Local Product
NWS Homepage
This page is being discontinued on March 12, 2014.
The same data is available at this site. Please update your bookmarks.
Thank you, and we apologize for the inconvenience.
Please send an email to SR-SRH.Webmaster@noaa.gov with any concerns.


Current Version
Previous Version:    01  02  03  04  05  06  07  08  09  10  11  12  13  14  15  16  17  18  19  20  21  22  23  24  25  26  27  28  29  30  
   31  32  33  34  35  36  37  38  39  40  41  42  43  44  45  46  47  48  49  50  51  52  53  54  55  56  57  58  59  60  
[Printable]
011
AXUS43 KLBF 160510
MISLBF


WESTERN AND NORTH CENTRAL NEBRASKA HOURLY WEATHER ROUNDUP
NATIONAL WEATHER SERVICE NORTH PLATTE NE
1200 AM CDT TUE SEP 16 2014

***STATIONS NOT REPORTING VARIABLES SUCH AS SKY/WEATHER OR
PRESSURE ARE PROVIDED BY THE NEBRASKA DEPARTMENT OF
ROADS...RAWS...AND APRS NETWORKS...AND ARE NOT UNDER
NATIONAL WEATHER SERVICE QUALITY CONTROL***

...OBSERVATIONS IN AND NEAR THE EASTERN PANHANDLE OF NEBRASKA...

CITY           SKY/WX    TMP DP  RH WIND       PRES   REMARKS
PINE RIDGE     CLEAR     59  43  55 S20G29    30.12F
CHADRON        CLEAR     60  46  59 SW12      30.10F
ALLIANCE       CLEAR     53  45  74 S13       30.18F
SIDNEY         CLEAR     54  48  80 S13       30.22F
WHITECLAY        N/A     53  42  64 SE9         N/A
RUSHVILLE        N/A     46  41  81 S13         N/A
LISCO            N/A     57  45  65 E10         N/A
BIG SPRINGS      N/A     55  48  78 S5          N/A
$$

...OBSERVATIONS IN NORTH CENTRAL NEBRASKA...

CITY           SKY/WX    TMP DP  RH WIND       PRES   REMARKS
VALENTINE      CLEAR     52  39  61 S8        30.19F
THEDFORD       CLEAR     51  42  72 S7        30.23S
AINSWORTH      CLEAR     46  39  77 S7        30.22S
O`NEILL        CLEAR     47  42  80 SE6       30.24S
ORD            CLEAR     44  40  85 CALM      30.24F
BROKEN BOW     CLEAR     41  39  93 CALM      30.24F
SPRINGVIEW       N/A     45  40  82 CALM        N/A
ROSE             N/A     48  42  79 E7          N/A
NEWPORT          N/A     46  39  78 S6          N/A
COMSTOCK         N/A     49  43  81 S7          N/A
CHAMBERS         N/A     44  38  78 CALM        N/A
$$

...OBSERVATIONS IN SOUTHWEST NEBRASKA AND FAR NORTHEAST COLORADO...

CITY           SKY/WX    TMP DP  RH WIND       PRES   REMARKS
WRAY           FAIR      53  48  83 S3        30.25F
HOLYOKE        FAIR      54  46  76 S8        30.24F
IMPERIAL       CLEAR     51  43  74 S8        30.24F
OGALLALA       CLEAR     53  47  78 CALM      30.23S
NORTH PLATTE   CLEAR     44  42  93 E6        30.24F
MCCOOK         CLEAR     51  43  74 SE7       30.27S
LEXINGTON      CLEAR     49  44  81 SE5       30.26S
PAXTON           N/A     51  46  83 S6          N/A
SUTHERLAND       N/A     50  42  73 S8          N/A
BRADY            N/A     46  42  85 CALM        N/A
GOTHENBURG       N/A     50  43  75 CALM        N/A
CALLAWAY         N/A     44  42  92 SE6         N/A
$$

...SOME WEATHER OBSERVATIONS FROM AROUND THE REGION...

CITY           SKY/WX    TMP DP  RH WIND       PRES   REMARKS
DENVER         CLEAR     59  50  72 SW12      30.24F
LARAMIE        PTCLDY    50  41  71 S9        30.30S
CHEYENNE       CLEAR     53  47  79 SW8       30.26F
SCOTTSBLUFF    PTCLDY    55  47  74 E8        30.18R
RAPID CITY     CLEAR     49  42  77 SE8       30.10F
PIERRE         CLEAR     48  39  71 SE8       30.15F
WINNER         FAIR      50  38  63 SE12      30.18F
SIOUX FALLS    CLEAR     45  43  93 CALM      30.24S
OMAHA          CLEAR     50  47  89 CALM      30.27S
GRAND ISLAND   CLEAR     47  43  86 S5        30.27S
KANSAS CITY    CLEAR     50  49  96 N6        30.25R
WICHITA        MOCLDY    66  56  70 NE10      30.22R
HAYS           CLEAR     54  45  71 NE9       30.26F
LIBERAL        CLOUDY    63  54  72 E7        30.30S
GOODLAND       CLEAR     53  50  89 S10       30.29S
$$




U.S. Dept. of Commerce
NOAA National Weather Service
1325 East West Highway
Silver Spring, MD 20910
E-mail: w-nws.webmaster@noaa.gov
Page last modified: May 16, 2007
NATIONAL WEATHER SERVICE: for Safety, for Work, for Fun - FOR LIFE